COSMOS 1275 DEB, 13815

Orbit data source: Space-Track

COSMOS 1275 DEB, 13815 is space debris in LEO originally from a launch on Thu, 04 Jun 1981 UTC launched from the Plesetsk Missile And Space Complex (PKMTR). Debris objects in space refer to the collection of defunct objects orbiting the Earth. Examples of debris include non-operational satellites, rocket bodies, and fragments generated from explosions, collisions, or faulty payload assembly.

Loading next visibility...
Identifier
13815, 1981-053HK
Orbit
LEO
Country
Flag of CISCIS
Related business
Manufacturer
Unknown
Mission
Spacecraft
Bus & Motor
Unknown
Mass
Unknown
Launch date (UTC)
1981-06-04 (45 years ago)
Launch vehicle
Unknown
Launch site
Plesetsk Missile And Space Complex (PKMTR)
Object type
Payload
Rocket body
Debris
Shape & HBR
Unknown shape, 0.1 m
Radar Cross Section
Small (<0.1 m²)

Expand to show TLE details & history
Last TLE update: 15 hours ago

TLE from 15 hours ago
0 COSMOS 1275 DEB
1 13815U 81053HK  25355.09995951  .00000966  00000-0  84920-3 0  9999
2 13815  83.0235   5.1413 0107463 213.1288 211.0865 13.81927409144883
Epoch: 2025-12-21T02:23Z
TLE epoch observation values (Epoch: 2025-12-21T02:23:56.501Z)
Latitude
62.83352°
Longitude
-107.03899°
Altitude
1,035.597 km
Speed
7.306 km/s
True Right ascension
01h 15m 27s
True Declination
62° 41' 56"
Sunlit
Object was in daylight at epoch
Visualization orbit readout
Latitude
Unknown
Longitude
Unknown
Altitude
Unknown
Speed
Unknown
Apparent Right ascension
Unknown
Apparent Declination
Unknown
Sunlit
N/A
Visualization observer readout
Local Sidereal Time
16:17:28
Azimuth
Unknown
Elevation
Unknown
Doppler factor
Unknown
Orbital elements
Apogee altitude
1,032.989 km
Perigee altitude
875.399 km
Semi-major axis
7,332.331 km
Eccentricity
0.01075
Inclination
83.0235°
RAAN
5.1413°
Arg. of periapsis
213.1288°
True anomaly
210.45792°
Mean anomaly
211.0865°
Eccentric anomaly
210.77149°
Mean motion
3.45685 °/min
Orbital period
104.14 mins
BSTAR
0.0008492
Loading maneuver chart data...
Computing Atmospheric mass density...
Loading historical data...
Loading historical data...
Loading historical data...
Loading historical data...
Loading historical data...
Loading historical data...
Loading historical data...

Documentation

Showing up to 5 results
|